Time,TemperatureF,DewpointF,PressureIn,WindDirection,WindDirectionDegrees,WindSpeedMPH,WindSpeedGustMPH,Humidity,HourlyPrecipIn,Conditions,Clouds,dailyrainin,SoftwareType,DateUTC
2013-03-08 00:02:00,32.4,16.7,29.73,SE,136,0.0,0.0,52,0.00,,,0.00,Wunderground v.1.15,2013-03-08 07:02:00,
2013-03-08 00:07:00,32.1,16.4,29.73,SE,136,0.0,0.0,52,0.00,,,0.00,Wunderground v.1.15,2013-03-08 07:07:00,
2013-03-08 00:12:00,31.6,16.4,29.73,SE,136,0.0,0.0,53,0.00,,,0.00,Wunderground v.1.15,2013-03-08 07:12:00,
2013-03-08 00:17:00,31.2,16.5,29.73,SE,136,1.0,1.0,54,0.00,,,0.00,Wunderground v.1.15,2013-03-08 07:17:00,
2013-03-08 00:22:00,30.9,16.6,29.73,SE,136,0.0,0.0,55,0.00,,,0.00,Wunderground v.1.15,2013-03-08 07:22:00,
2013-03-08 00:27:00,31.3,17.0,29.73,SE,136,0.0,0.0,55,0.00,,,0.00,Wunderground v.1.15,2013-03-08 07:27:00,
2013-03-08 00:32:00,31.6,17.7,29.73,SE,136,0.0,0.0,56,0.00,,,0.00,Wunderground v.1.15,2013-03-08 07:32:00,
2013-03-08 00:37:00,31.6,17.3,29.72,SE,136,0.0,2.0,55,0.00,,,0.00,Wunderground v.1.15,2013-03-08 07:37:00,
2013-03-08 00:42:00,31.8,17.9,29.72,SE,136,3.0,3.0,56,0.00,,,0.00,Wunderground v.1.15,2013-03-08 07:42:00,
2013-03-08 00:47:00,31.6,17.7,29.72,SE,136,0.0,4.0,56,0.00,,,0.00,Wunderground v.1.15,2013-03-08 07:47:00,
2013-03-08 00:52:00,32.1,18.6,29.72,SE,136,0.0,1.0,57,0.00,,,0.00,Wunderground v.1.15,2013-03-08 07:52:00,
2013-03-08 00:57:00,32.1,17.7,29.72,SE,136,0.0,1.0,55,0.00,,,0.00,Wunderground v.1.15,2013-03-08 07:57:00,
2013-03-08 01:02:00,31.5,17.2,29.72,SE,136,0.0,2.0,55,0.00,,,0.00,Wunderground v.1.15,2013-03-08 08:02:00,
2013-03-08 01:07:00,30.7,17.3,29.74,SE,136,0.0,2.0,57,0.00,,,0.00,Wunderground v.1.15,2013-03-08 08:07:00,
2013-03-08 01:12:00,30.4,17.4,29.74,SE,136,0.0,0.0,58,0.00,,,0.00,Wunderground v.1.15,2013-03-08 08:12:00,
2013-03-08 01:17:00,30.9,18.2,29.74,SE,136,1.0,3.0,59,0.00,,,0.00,Wunderground v.1.15,2013-03-08 08:17:00,
2013-03-08 01:22:00,31.6,18.1,29.73,SE,136,0.0,0.0,57,0.00,,,0.00,Wunderground v.1.15,2013-03-08 08:22:00,
2013-03-08 01:27:00,32.1,18.2,29.73,SE,136,1.0,2.0,56,0.00,,,0.00,Wunderground v.1.15,2013-03-08 08:27:00,
2013-03-08 01:33:00,32.5,18.1,29.73,SE,136,0.0,0.0,55,0.00,,,0.00,Wunderground v.1.15,2013-03-08 08:33:00,
2013-03-08 01:38:00,32.4,18.0,29.73,SE,136,2.0,3.0,55,0.00,,,0.00,Wunderground v.1.15,2013-03-08 08:38:00,
2013-03-08 01:43:00,32.5,18.5,29.73,SE,136,2.0,4.0,56,0.00,,,0.00,Wunderground v.1.15,2013-03-08 08:43:00,
2013-03-08 01:48:00,32.9,18.5,29.73,SE,136,0.0,4.0,55,0.00,,,0.00,Wunderground v.1.15,2013-03-08 08:48:00,
2013-03-08 01:53:00,35.3,17.5,29.72,SE,138,3.0,5.0,48,0.00,,,0.00,Wunderground v.1.15,2013-03-08 08:53:00,
2013-03-08 01:58:00,40.6,15.0,29.72,SE,144,6.0,8.0,35,0.00,,,0.00,Wunderground v.1.15,2013-03-08 08:58:00,
2013-03-08 02:03:00,45.7,14.4,29.72,SE,136,6.0,7.0,28,0.00,,,0.00,Wunderground v.1.15,2013-03-08 09:03:00,
2013-03-08 02:08:00,48.2,15.7,29.65,SE,140,4.0,10.0,27,0.00,,,0.00,Wunderground v.1.15,2013-03-08 09:08:00,
2013-03-08 02:13:00,49.4,12.1,29.65,ESE,117,9.0,13.0,22,0.00,,,0.00,Wunderground v.1.15,2013-03-08 09:13:00,
2013-03-08 02:18:00,51.0,14.4,29.65,ESE,122,5.0,13.0,23,0.00,,,0.00,Wunderground v.1.15,2013-03-08 09:18:00,
2013-03-08 02:23:00,51.4,14.8,29.63,SE,133,3.0,6.0,23,0.00,,,0.00,Wunderground v.1.15,2013-03-08 09:23:00,
2013-03-08 02:28:00,50.4,14.9,29.63,SE,134,6.0,9.0,24,0.00,,,0.00,Wunderground v.1.15,2013-03-08 09:28:00,
2013-03-08 02:33:00,51.3,14.7,29.63,SE,134,11.0,11.0,23,0.00,,,0.00,Wunderground v.1.15,2013-03-08 09:33:00,
2013-03-08 02:38:00,51.7,15.0,29.63,SE,141,2.0,11.0,23,0.00,,,0.00,Wunderground v.1.15,2013-03-08 09:38:00,
2013-03-08 02:43:00,51.7,15.0,29.63,SE,128,5.0,12.0,23,0.00,,,0.00,Wunderground v.1.15,2013-03-08 09:43:00,
2013-03-08 02:48:00,51.6,15.0,29.63,SE,128,6.0,12.0,23,0.00,,,0.00,Wunderground v.1.15,2013-03-08 09:48:00,
2013-03-08 02:53:00,51.3,14.7,29.62,SE,138,3.0,10.0,23,0.00,,,0.00,Wunderground v.1.15,2013-03-08 09:53:00,
2013-03-08 02:58:00,51.0,15.4,29.62,SE,130,3.0,10.0,24,0.00,,,0.00,Wunderground v.1.15,2013-03-08 09:58:00,
2013-03-08 03:03:00,50.2,15.7,29.62,SE,144,3.0,5.0,25,0.00,,,0.00,Wunderground v.1.15,2013-03-08 10:03:00,
2013-03-08 03:08:00,50.5,15.0,29.63,SE,140,7.0,11.0,24,0.00,,,0.00,Wunderground v.1.15,2013-03-08 10:08:00,
2013-03-08 03:13:00,51.6,13.9,29.63,SE,140,6.0,11.0,22,0.00,,,0.00,Wunderground v.1.15,2013-03-08 10:13:00,
2013-03-08 03:18:00,51.9,14.2,29.63,SE,138,4.0,11.0,22,0.00,,,0.00,Wunderground v.1.15,2013-03-08 10:18:00,
2013-03-08 03:23:00,51.7,14.0,29.63,SE,140,7.0,11.0,22,0.00,,,0.00,Wunderground v.1.15,2013-03-08 10:23:00,
2013-03-08 03:28:00,51.6,15.0,29.63,SSE,151,2.0,11.0,23,0.00,,,0.00,Wunderground v.1.15,2013-03-08 10:28:00,
2013-03-08 03:33:00,50.8,14.3,29.63,SE,141,12.0,12.0,23,0.00,,,0.00,Wunderground v.1.15,2013-03-08 10:33:00,
2013-03-08 03:38:00,50.8,14.3,29.62,SE,142,3.0,12.0,23,0.00,,,0.00,Wunderground v.1.15,2013-03-08 10:38:00,
2013-03-08 03:43:00,51.0,14.4,29.62,SE,131,7.0,12.0,23,0.00,,,0.00,Wunderground v.1.15,2013-03-08 10:43:00,
2013-03-08 03:48:00,51.4,14.8,29.62,SE,142,4.0,12.0,23,0.00,,,0.00,Wunderground v.1.15,2013-03-08 10:48:00,
2013-03-08 03:53:00,51.3,14.7,29.62,SE,138,6.0,9.0,23,0.00,,,0.00,Wunderground v.1.15,2013-03-08 10:53:00,
2013-03-08 03:58:00,51.1,14.5,29.62,SSE,150,0.0,9.0,23,0.00,,,0.00,Wunderground v.1.15,2013-03-08 10:58:00,
2013-03-08 04:03:00,50.2,14.7,29.62,SE,136,3.0,4.0,24,0.00,,,0.00,Wunderground v.1.15,2013-03-08 11:03:00,
2013-03-08 04:08:00,50.4,13.9,29.63,SE,136,4.0,8.0,23,0.00,,,0.00,Wunderground v.1.15,2013-03-08 11:08:00,
2013-03-08 04:13:00,50.4,14.9,29.63,SE,134,1.0,5.0,24,0.00,,,0.00,Wunderground v.1.15,2013-03-08 11:13:00,
2013-03-08 04:18:00,49.9,14.5,29.63,SE,131,4.0,5.0,24,0.00,,,0.00,Wunderground v.1.15,2013-03-08 11:18:00,
2013-03-08 04:23:00,50.1,14.7,29.63,SSE,157,1.0,6.0,24,0.00,,,0.00,Wunderground v.1.15,2013-03-08 11:23:00,
2013-03-08 04:28:00,49.5,15.1,29.63,SSE,157,0.0,6.0,25,0.00,,,0.00,Wunderground v.1.15,2013-03-08 11:28:00,
2013-03-08 04:33:00,48.6,15.2,29.63,SSE,157,0.0,4.0,26,0.00,,,0.00,Wunderground v.1.15,2013-03-08 11:33:00,
2013-03-08 04:38:00,47.3,15.0,29.66,SSE,156,2.0,6.0,27,0.00,,,0.00,Wunderground v.1.15,2013-03-08 11:38:00,
2013-03-08 04:43:00,48.2,14.9,29.66,SE,139,2.0,8.0,26,0.00,,,0.00,Wunderground v.1.15,2013-03-08 11:43:00,
2013-03-08 04:48:00,49.4,14.1,29.66,ESE,115,5.0,11.0,24,0.00,,,0.00,Wunderground v.1.15,2013-03-08 11:48:00,
2013-03-08 04:53:00,50.4,13.9,29.63,ESE,113,6.0,10.0,23,0.00,,,0.00,Wunderground v.1.15,2013-03-08 11:53:00,
2013-03-08 04:58:00,50.7,14.2,29.63,ESE,112,2.0,11.0,23,0.00,,,0.00,Wunderground v.1.15,2013-03-08 11:58:00,
2013-03-08 05:03:00,51.0,13.4,29.63,SE,134,6.0,9.0,22,0.00,,,0.00,Wunderground v.1.15,2013-03-08 12:03:00,
2013-03-08 05:08:00,51.0,14.4,29.64,SE,139,4.0,9.0,23,0.00,,,0.00,Wunderground v.1.15,2013-03-08 12:08:00,
2013-03-08 05:13:00,50.2,15.7,29.64,SE,132,2.0,5.0,25,0.00,,,0.00,Wunderground v.1.15,2013-03-08 12:13:00,
2013-03-08 05:18:00,48.3,16.7,29.64,SE,132,0.0,5.0,28,0.00,,,0.00,Wunderground v.1.15,2013-03-08 12:18:00,
2013-03-08 05:23:00,46.5,16.7,29.71,SE,132,0.0,1.0,30,0.00,,,0.00,Wunderground v.1.15,2013-03-08 12:23:00,
2013-03-08 05:28:00,44.8,16.0,29.71,SE,132,1.0,2.0,31,0.00,,,0.00,Wunderground v.1.15,2013-03-08 12:28:00,
2013-03-08 05:33:00,43.8,17.2,29.71,SE,132,1.0,2.0,34,0.00,,,0.00,Wunderground v.1.15,2013-03-08 12:33:00,
2013-03-08 05:38:00,43.9,15.9,29.73,ENE,61,0.0,6.0,32,0.00,,,0.00,Wunderground v.1.15,2013-03-08 12:38:00,
2013-03-08 05:43:00,43.3,17.4,29.73,ENE,61,0.0,1.0,35,0.00,,,0.00,Wunderground v.1.15,2013-03-08 12:43:00,
2013-03-08 05:48:00,42.1,18.3,29.73,ENE,61,0.0,2.0,38,0.00,,,0.00,Wunderground v.1.15,2013-03-08 12:48:00,
2013-03-08 05:53:00,41.1,18.6,29.74,ENE,61,0.0,0.0,40,0.00,,,0.00,Wunderground v.1.15,2013-03-08 12:53:00,
2013-03-08 05:58:00,40.1,18.3,29.74,ENE,61,0.0,0.0,41,0.00,,,0.00,Wunderground v.1.15,2013-03-08 12:58:00,
2013-03-08 06:03:00,39.5,18.8,29.74,ENE,61,0.0,0.0,43,0.00,,,0.00,Wunderground v.1.15,2013-03-08 13:03:00,
2013-03-08 06:08:00,38.5,18.4,29.75,ENE,61,0.0,0.0,44,0.00,,,0.00,Wunderground v.1.15,2013-03-08 13:08:00,
2013-03-08 06:13:00,37.8,17.8,29.75,ENE,61,0.0,0.0,44,0.00,,,0.00,Wunderground v.1.15,2013-03-08 13:13:00,
2013-03-08 06:18:00,37.3,17.4,29.75,ENE,61,0.0,0.0,44,0.00,,,0.00,Wunderground v.1.15,2013-03-08 13:18:00,
2013-03-08 06:23:00,37.2,17.8,29.84,ENE,61,0.0,0.0,45,0.00,,,0.00,Wunderground v.1.15,2013-03-08 13:23:00,
2013-03-08 06:28:00,36.9,17.5,29.84,ENE,61,0.0,0.0,45,0.00,,,0.00,Wunderground v.1.15,2013-03-08 13:28:00,
2013-03-08 06:34:00,36.3,18.0,29.84,ENE,61,0.0,0.0,47,0.00,,,0.00,Wunderground v.1.15,2013-03-08 13:34:00,
2013-03-08 06:39:00,36.3,17.5,29.84,ENE,61,0.0,0.0,46,0.00,,,0.00,Wunderground v.1.15,2013-03-08 13:39:00,
2013-03-08 06:44:00,36.2,18.9,29.84,ENE,61,0.0,0.0,49,0.00,,,0.00,Wunderground v.1.15,2013-03-08 13:44:00,
2013-03-08 06:49:00,35.9,18.6,29.84,ENE,61,0.0,0.0,49,0.00,,,0.00,Wunderground v.1.15,2013-03-08 13:49:00,
2013-03-08 06:54:00,35.9,18.6,29.83,ENE,61,0.0,0.0,49,0.00,,,0.00,Wunderground v.1.15,2013-03-08 13:54:00,
2013-03-08 06:59:00,35.9,19.0,29.83,ENE,61,0.0,0.0,50,0.00,,,0.00,Wunderground v.1.15,2013-03-08 13:59:00,
2013-03-08 07:04:00,36.3,18.5,29.83,ENE,61,0.0,0.0,48,0.00,,,0.00,Wunderground v.1.15,2013-03-08 14:04:00,
2013-03-08 07:09:00,37.3,17.9,29.83,ENE,61,0.0,2.0,45,0.00,,,0.00,Wunderground v.1.15,2013-03-08 14:09:00,
2013-03-08 07:14:00,40.6,16.9,29.83,ENE,63,2.0,3.0,38,0.00,,,0.00,Wunderground v.1.15,2013-03-08 14:14:00,
2013-03-08 07:19:00,42.6,18.7,29.83,ENE,63,1.0,3.0,38,0.00,,,0.00,Wunderground v.1.15,2013-03-08 14:19:00,
2013-03-08 07:24:00,42.5,19.8,29.81,ENE,63,0.0,1.0,40,0.00,,,0.00,Wunderground v.1.15,2013-03-08 14:24:00,
2013-03-08 07:29:00,41.8,19.8,29.81,ENE,63,0.0,1.0,41,0.00,,,0.00,Wunderground v.1.15,2013-03-08 14:29:00,
2013-03-08 07:34:00,41.1,18.6,29.81,ENE,63,0.0,0.0,40,0.00,,,0.00,Wunderground v.1.15,2013-03-08 14:34:00,
2013-03-08 07:39:00,40.9,19.5,29.82,ENE,63,0.0,0.0,42,0.00,,,0.00,Wunderground v.1.15,2013-03-08 14:39:00,
2013-03-08 07:44:00,40.8,19.5,29.82,ENE,63,0.0,2.0,42,0.00,,,0.00,Wunderground v.1.15,2013-03-08 14:44:00,
2013-03-08 07:49:00,40.6,19.3,29.82,ENE,63,0.0,2.0,42,0.00,,,0.00,Wunderground v.1.15,2013-03-08 14:49:00,
2013-03-08 07:54:00,40.5,20.3,29.82,ENE,63,0.0,2.0,44,0.00,,,0.00,Wunderground v.1.15,2013-03-08 14:54:00,
2013-03-08 07:59:00,40.6,19.3,29.82,ENE,63,0.0,2.0,42,0.00,,,0.00,Wunderground v.1.15,2013-03-08 14:59:00,
2013-03-08 08:04:00,40.8,19.5,29.82,ENE,63,0.0,0.0,42,0.00,,,0.00,Wunderground v.1.15,2013-03-08 15:04:00,
2013-03-08 08:09:00,41.1,21.3,29.83,ENE,63,0.0,0.0,45,0.00,,,0.00,Wunderground v.1.15,2013-03-08 15:09:00,
2013-03-08 08:14:00,41.2,21.4,29.83,ENE,63,0.0,0.0,45,0.00,,,0.00,Wunderground v.1.15,2013-03-08 15:14:00,
2013-03-08 08:19:00,41.6,21.8,29.83,ENE,63,0.0,0.0,45,0.00,,,0.00,Wunderground v.1.15,2013-03-08 15:19:00,
2013-03-08 08:24:00,41.9,22.1,29.83,ENE,63,0.0,0.0,45,0.00,,,0.00,Wunderground v.1.15,2013-03-08 15:24:00,
2013-03-08 08:29:00,42.5,21.5,29.83,ENE,63,0.0,1.0,43,0.00,,,0.00,Wunderground v.1.15,2013-03-08 15:29:00,
2013-03-08 08:34:00,43.1,23.2,29.83,ENE,63,0.0,0.0,45,0.00,,,0.00,Wunderground v.1.15,2013-03-08 15:34:00,
2013-03-08 08:39:00,44.2,20.2,29.82,ESE,109,1.0,5.0,38,0.00,,,0.00,Wunderground v.1.15,2013-03-08 15:39:00,
2013-03-08 08:44:00,46.5,17.4,29.82,SE,145,5.0,10.0,31,0.00,,,0.00,Wunderground v.1.15,2013-03-08 15:44:00,
2013-03-08 08:49:00,49.9,18.0,29.82,SE,132,5.0,10.0,28,0.00,,,0.00,Wunderground v.1.15,2013-03-08 15:49:00,
2013-03-08 08:54:00,51.4,17.6,29.78,SE,146,4.0,9.0,26,0.00,,,0.00,Wunderground v.1.15,2013-03-08 15:54:00,
2013-03-08 08:59:00,52.3,17.5,29.78,SE,140,3.0,10.0,25,0.00,,,0.00,Wunderground v.1.15,2013-03-08 15:59:00,
2013-03-08 09:04:00,52.6,17.7,29.78,SE,141,1.0,10.0,25,0.00,,,0.00,Wunderground v.1.15,2013-03-08 16:04:00,
2013-03-08 09:09:00,52.9,18.0,29.76,ESE,122,1.0,10.0,25,0.00,,,0.00,Wunderground v.1.15,2013-03-08 16:09:00,
2013-03-08 09:14:00,53.1,18.2,29.76,ESE,122,3.0,3.0,25,0.00,,,0.00,Wunderground v.1.15,2013-03-08 16:14:00,
2013-03-08 09:19:00,53.1,18.2,29.76,ESE,117,1.0,6.0,25,0.00,,,0.00,Wunderground v.1.15,2013-03-08 16:19:00,
2013-03-08 09:24:00,52.8,18.8,29.73,NE,50,3.0,7.0,26,0.00,,,0.00,Wunderground v.1.15,2013-03-08 16:24:00,
2013-03-08 09:29:00,52.0,18.1,29.73,NE,45,2.0,7.0,26,0.00,,,0.00,Wunderground v.1.15,2013-03-08 16:29:00,
2013-03-08 09:34:00,51.9,18.9,29.73,NE,54,0.0,4.0,27,0.00,,,0.00,Wunderground v.1.15,2013-03-08 16:34:00,
2013-03-08 09:39:00,52.3,19.3,29.74,NE,54,1.0,5.0,27,0.00,,,0.00,Wunderground v.1.15,2013-03-08 16:39:00,
2013-03-08 09:44:00,52.8,19.7,29.74,ESE,121,6.0,7.0,27,0.00,,,0.00,Wunderground v.1.15,2013-03-08 16:44:00,
2013-03-08 09:49:00,53.8,20.6,29.74,ESE,118,4.0,11.0,27,0.00,,,0.00,Wunderground v.1.15,2013-03-08 16:49:00,
2013-03-08 09:54:00,54.2,20.0,29.73,ESE,117,5.0,7.0,26,0.00,,,0.00,Wunderground v.1.15,2013-03-08 16:54:00,
2013-03-08 09:59:00,54.7,20.4,29.73,SE,132,5.0,10.0,26,0.00,,,0.00,Wunderground v.1.15,2013-03-08 16:59:00,
2013-03-08 10:04:00,54.8,20.5,29.73,ESE,107,6.0,13.0,26,0.00,,,0.00,Wunderground v.1.15,2013-03-08 17:04:00,
2013-03-08 10:09:00,55.1,20.8,29.72,ESE,107,6.0,13.0,26,0.00,,,0.00,Wunderground v.1.15,2013-03-08 17:09:00,
2013-03-08 10:14:00,55.1,21.7,29.72,ESE,120,5.0,13.0,27,0.00,,,0.00,Wunderground v.1.15,2013-03-08 17:14:00,
2013-03-08 10:19:00,55.1,22.5,29.72,ESE,114,9.0,13.0,28,0.00,,,0.00,Wunderground v.1.15,2013-03-08 17:19:00,
2013-03-08 10:24:00,55.1,22.5,29.73,SE,146,2.0,14.0,28,0.00,,,0.00,Wunderground v.1.15,2013-03-08 17:24:00,
2013-03-08 10:29:00,55.1,22.5,29.73,SE,125,3.0,14.0,28,0.00,,,0.00,Wunderground v.1.15,2013-03-08 17:29:00,
2013-03-08 10:34:00,55.1,21.7,29.73,ESE,108,4.0,10.0,27,0.00,,,0.00,Wunderground v.1.15,2013-03-08 17:34:00,
2013-03-08 10:39:00,55.1,22.5,29.72,ESE,120,4.0,10.0,28,0.00,,,0.00,Wunderground v.1.15,2013-03-08 17:39:00,
2013-03-08 10:44:00,55.1,22.5,29.72,ESE,121,5.0,10.0,28,0.00,,,0.00,Wunderground v.1.15,2013-03-08 17:44:00,
2013-03-08 10:49:00,55.1,22.5,29.72,NNW,336,6.0,10.0,28,0.00,,,0.00,Wunderground v.1.15,2013-03-08 17:49:00,
2013-03-08 10:54:00,54.5,22.9,29.73,WNW,300,1.0,6.0,29,0.00,,,0.00,Wunderground v.1.15,2013-03-08 17:54:00,
2013-03-08 10:59:00,53.3,22.6,29.73,WNW,300,0.0,6.0,30,0.00,,,0.00,Wunderground v.1.15,2013-03-08 17:59:00,
2013-03-08 11:04:00,52.6,22.8,29.73,WNW,301,2.0,3.0,31,0.00,,,0.00,Wunderground v.1.15,2013-03-08 18:04:00,
2013-03-08 11:09:00,52.2,22.4,29.73,NW,304,3.0,7.0,31,0.00,,,0.00,Wunderground v.1.15,2013-03-08 18:09:00,
2013-03-08 11:14:00,52.3,21.7,29.73,NW,311,5.0,6.0,30,0.00,,,0.00,Wunderground v.1.15,2013-03-08 18:14:00,
2013-03-08 11:19:00,52.8,22.2,29.73,NW,321,1.0,6.0,30,0.00,,,0.00,Wunderground v.1.15,2013-03-08 18:19:00,
2013-03-08 11:24:00,53.3,21.8,29.74,NW,321,2.0,4.0,29,0.00,,,0.00,Wunderground v.1.15,2013-03-08 18:24:00,
2013-03-08 11:29:00,53.9,20.6,29.74,NW,317,1.0,7.0,27,0.00,,,0.00,Wunderground v.1.15,2013-03-08 18:29:00,
2013-03-08 11:34:00,54.5,21.2,29.74,West,278,0.0,7.0,27,0.00,,,0.00,Wunderground v.1.15,2013-03-08 18:34:00,
2013-03-08 11:39:00,54.8,22.3,29.73,WNW,287,1.0,7.0,28,0.00,,,0.00,Wunderground v.1.15,2013-03-08 18:39:00,
2013-03-08 11:44:00,55.0,21.6,29.73,WNW,296,3.0,6.0,27,0.00,,,0.00,Wunderground v.1.15,2013-03-08 18:44:00,
2013-03-08 11:49:00,55.1,22.5,29.73,WNW,295,2.0,6.0,28,0.00,,,0.00,Wunderground v.1.15,2013-03-08 18:49:00,
2013-03-08 11:55:00,55.3,22.7,29.72,WNW,295,0.0,2.0,28,0.00,,,0.00,Wunderground v.1.15,2013-03-08 18:55:00,
2013-03-08 12:00:00,55.3,22.7,29.72,WNW,295,1.0,2.0,28,0.00,,,0.00,Wunderground v.1.15,2013-03-08 19:00:00,
2013-03-08 12:05:00,55.0,23.3,29.72,WNW,300,3.0,6.0,29,0.00,,,0.00,Wunderground v.1.15,2013-03-08 19:05:00,
2013-03-08 12:10:00,54.7,23.0,29.72,NW,324,5.0,6.0,29,0.00,,,0.00,Wunderground v.1.15,2013-03-08 19:10:00,
2013-03-08 12:14:00,54.4,22.8,29.72,NW,324,1.0,4.0,29,0.00,,,0.00,Wunderground v.1.15,2013-03-08 19:14:00,
2013-03-08 12:20:00,54.1,23.3,29.72,NW,325,4.0,5.0,30,0.00,,,0.00,Wunderground v.1.15,2013-03-08 19:20:00,
2013-03-08 12:25:00,53.9,23.1,29.72,NNE,17,3.0,7.0,30,0.00,,,0.00,Wunderground v.1.15,2013-03-08 19:25:00,
2013-03-08 12:30:00,53.8,23.1,29.72,NNE,17,0.0,7.0,30,0.00,,,0.00,Wunderground v.1.15,2013-03-08 19:30:00,
2013-03-08 12:35:00,53.8,23.8,29.72,NNE,17,2.0,2.0,31,0.00,,,0.00,Wunderground v.1.15,2013-03-08 19:35:00,
2013-03-08 12:40:00,53.6,23.7,29.72,NNE,17,1.0,3.0,31,0.00,,,0.00,Wunderground v.1.15,2013-03-08 19:40:00,
2013-03-08 12:45:00,53.5,25.1,29.72,North,10,11.0,12.0,33,0.00,,,0.00,Wunderground v.1.15,2013-03-08 19:45:00,
2013-03-08 12:50:00,52.8,27.9,29.72,North,360,0.0,16.0,38,0.00,,,0.00,Wunderground v.1.15,2013-03-08 19:50:00,
2013-03-08 12:55:00,52.2,32.0,29.72,NNW,339,2.0,5.0,46,0.00,,,0.00,Wunderground v.1.15,2013-03-08 19:55:00,
2013-03-08 13:00:00,51.3,31.7,29.72,NW,309,2.0,9.0,47,0.00,,,0.00,Wunderground v.1.15,2013-03-08 20:00:00,
2013-03-08 13:05:00,50.4,31.9,29.72,West,266,10.0,10.0,49,0.00,,,0.00,Wunderground v.1.15,2013-03-08 20:05:00,
2013-03-08 13:10:00,49.9,32.0,29.72,WNW,282,4.0,10.0,50,0.00,,,0.00,Wunderground v.1.15,2013-03-08 20:10:00,
2013-03-08 13:15:00,49.6,31.2,29.72,WNW,294,2.0,7.0,49,0.00,,,0.00,Wunderground v.1.15,2013-03-08 20:15:00,
2013-03-08 13:20:00,49.6,31.2,29.72,WNW,286,5.0,7.0,49,0.00,,,0.00,Wunderground v.1.15,2013-03-08 20:20:00,
2013-03-08 13:25:00,49.5,31.1,29.63,WNW,293,1.0,8.0,49,0.00,,,0.00,Wunderground v.1.15,2013-03-08 20:25:00,
2013-03-08 13:30:00,49.4,32.5,29.63,WNW,300,0.0,8.0,52,0.00,,,0.00,Wunderground v.1.15,2013-03-08 20:30:00,
2013-03-08 13:35:00,48.9,33.0,29.63,North,9,9.0,14.0,54,0.00,,,0.00,Wunderground v.1.15,2013-03-08 20:35:00,
2013-03-08 13:40:00,48.3,33.3,29.64,North,5,6.0,15.0,56,0.00,,,0.00,Wunderground v.1.15,2013-03-08 20:40:00,
2013-03-08 13:45:00,47.6,34.0,29.64,North,360,4.0,13.0,59,0.00,,,0.00,Wunderground v.1.15,2013-03-08 20:45:00,
2013-03-08 13:50:00,47.0,34.2,29.64,NNW,344,5.0,13.0,61,0.00,,,0.00,Wunderground v.1.15,2013-03-08 20:50:00,
2013-03-08 13:55:00,46.7,34.8,29.65,NNW,346,7.0,14.0,63,0.00,,,0.00,Wunderground v.1.15,2013-03-08 20:55:00,
2013-03-08 14:00:00,46.4,34.9,29.65,North,349,4.0,14.0,64,0.00,,,0.00,Wunderground v.1.15,2013-03-08 21:00:00,
2013-03-08 14:05:00,46.2,35.1,29.65,NNW,344,1.0,8.0,65,0.00,,,0.00,Wunderground v.1.15,2013-03-08 21:05:00,
2013-03-08 14:10:00,46.1,35.4,29.65,NNW,333,1.0,2.0,66,0.00,,,0.00,Wunderground v.1.15,2013-03-08 21:10:00,
2013-03-08 14:15:00,46.1,35.7,29.65,NW,309,3.0,7.0,67,0.00,,,0.00,Wunderground v.1.15,2013-03-08 21:15:00,
2013-03-08 14:20:00,45.8,36.2,29.65,NW,309,6.0,6.0,69,0.00,,,0.00,Wunderground v.1.15,2013-03-08 21:20:00,
2013-03-08 14:25:00,45.7,36.1,29.64,West,276,4.0,9.0,69,0.00,,,0.00,Wunderground v.1.15,2013-03-08 21:25:00,
2013-03-08 14:30:00,45.4,35.8,29.64,West,271,3.0,4.0,69,0.00,,,0.00,Wunderground v.1.15,2013-03-08 21:30:00,
2013-03-08 14:35:00,45.2,36.0,29.64,West,278,4.0,4.0,70,0.00,,,0.00,Wunderground v.1.15,2013-03-08 21:35:00,
2013-03-08 14:40:00,44.9,35.7,29.65,West,277,1.0,2.0,70,0.00,,,0.00,Wunderground v.1.15,2013-03-08 21:40:00,
2013-03-08 14:45:00,44.9,35.3,29.65,West,278,0.0,2.0,69,0.00,,,0.00,Wunderground v.1.15,2013-03-08 21:45:00,
2013-03-08 14:50:00,44.9,35.3,29.65,West,278,0.0,1.0,69,0.00,,,0.00,Wunderground v.1.15,2013-03-08 21:50:00,
2013-03-08 14:55:00,45.1,35.5,29.66,West,278,1.0,3.0,69,0.00,,,0.00,Wunderground v.1.15,2013-03-08 21:55:00,
2013-03-08 15:00:00,45.1,35.5,29.66,West,278,0.0,1.0,69,0.00,,,0.00,Wunderground v.1.15,2013-03-08 22:00:00,
2013-03-08 15:05:00,45.2,35.6,29.66,West,278,0.0,2.0,69,0.00,,,0.00,Wunderground v.1.15,2013-03-08 22:05:00,
2013-03-08 15:10:00,45.2,35.6,29.65,West,278,0.0,1.0,69,0.00,,,0.00,Wunderground v.1.15,2013-03-08 22:10:00,
2013-03-08 15:15:00,45.2,36.0,29.65,West,278,0.0,2.0,70,0.00,,,0.00,Wunderground v.1.15,2013-03-08 22:15:00,
2013-03-08 15:20:00,45.2,36.4,29.65,West,278,0.0,0.0,71,0.00,,,0.00,Wunderground v.1.15,2013-03-08 22:20:00,
2013-03-08 15:25:00,45.1,36.3,29.65,West,278,0.0,0.0,71,0.00,,,0.00,Wunderground v.1.15,2013-03-08 22:25:00,
2013-03-08 15:30:00,45.1,35.9,29.65,West,278,1.0,2.0,70,0.00,,,0.00,Wunderground v.1.15,2013-03-08 22:30:00,
2013-03-08 15:35:00,44.8,36.7,29.65,West,278,0.0,2.0,73,0.00,,,0.00,Wunderground v.1.15,2013-03-08 22:35:00,
2013-03-08 15:40:00,44.8,37.0,29.65,West,278,2.0,2.0,74,0.00,,,0.00,Wunderground v.1.15,2013-03-08 22:40:00,
2013-03-08 15:45:00,44.6,37.2,29.65,West,278,2.0,3.0,75,0.00,,,0.00,Wunderground v.1.15,2013-03-08 22:45:00,
2013-03-08 15:50:00,44.3,37.5,29.65,West,278,1.0,2.0,77,0.00,,,0.00,Wunderground v.1.15,2013-03-08 22:50:00,
2013-03-08 15:55:00,44.1,38.0,29.64,West,278,1.0,2.0,79,0.00,,,0.01,Wunderground v.1.15,2013-03-08 22:55:00,
2013-03-08 16:00:00,43.9,38.4,29.64,West,278,1.0,1.0,81,0.00,,,0.01,Wunderground v.1.15,2013-03-08 23:00:00,
2013-03-08 16:05:00,43.6,38.5,29.64,West,278,0.0,4.0,82,0.00,,,0.01,Wunderground v.1.15,2013-03-08 23:05:00,
2013-03-08 16:10:00,43.5,38.7,29.63,West,278,0.0,2.0,83,0.00,,,0.01,Wunderground v.1.15,2013-03-08 23:10:00,
2013-03-08 16:15:00,43.3,38.5,29.63,West,278,0.0,3.0,83,0.00,,,0.01,Wunderground v.1.15,2013-03-08 23:15:00,
2013-03-08 16:20:00,43.3,38.8,29.63,West,278,0.0,1.0,84,0.00,,,0.01,Wunderground v.1.15,2013-03-08 23:20:00,
2013-03-08 16:25:00,43.5,39.0,29.63,West,278,0.0,1.0,84,0.00,,,0.01,Wunderground v.1.15,2013-03-08 23:25:00,
2013-03-08 16:31:00,43.6,38.8,29.63,West,278,0.0,0.0,83,0.00,,,0.01,Wunderground v.1.15,2013-03-08 23:31:00,
2013-03-08 16:36:00,43.8,39.0,29.63,West,278,0.0,0.0,83,0.00,,,0.01,Wunderground v.1.15,2013-03-08 23:36:00,
2013-03-08 16:41:00,43.8,38.7,29.62,West,278,0.0,0.0,82,0.00,,,0.01,Wunderground v.1.15,2013-03-08 23:41:00,
2013-03-08 16:46:00,43.9,38.1,29.62,West,278,0.0,0.0,80,0.00,,,0.01,Wunderground v.1.15,2013-03-08 23:46:00,
2013-03-08 16:51:00,43.9,37.8,29.62,West,278,0.0,0.0,79,0.00,,,0.01,Wunderground v.1.15,2013-03-08 23:51:00,
2013-03-08 16:56:00,43.9,38.1,29.61,West,278,0.0,0.0,80,0.00,,,0.01,Wunderground v.1.15,2013-03-08 23:56:00,
2013-03-08 17:01:00,44.1,38.3,29.61,West,278,0.0,0.0,80,0.00,,,0.01,Wunderground v.1.15,2013-03-09 00:01:00,
2013-03-08 17:06:00,44.1,38.0,29.61,West,278,0.0,0.0,79,0.00,,,0.01,Wunderground v.1.15,2013-03-09 00:06:00,
2013-03-08 17:11:00,44.1,37.7,29.60,West,278,0.0,0.0,78,0.00,,,0.01,Wunderground v.1.15,2013-03-09 00:11:00,
2013-03-08 17:16:00,44.1,37.7,29.60,West,278,0.0,0.0,78,0.00,,,0.01,Wunderground v.1.15,2013-03-09 00:16:00,
2013-03-08 17:21:00,43.9,37.2,29.60,West,278,0.0,0.0,77,0.00,,,0.01,Wunderground v.1.15,2013-03-09 00:21:00,
2013-03-08 17:26:00,43.9,37.2,29.65,West,278,0.0,0.0,77,0.00,,,0.01,Wunderground v.1.15,2013-03-09 00:26:00,
2013-03-08 17:31:00,43.9,37.2,29.65,West,278,0.0,0.0,77,0.00,,,0.01,Wunderground v.1.15,2013-03-09 00:31:00,
2013-03-08 17:36:00,43.9,37.5,29.65,West,278,0.0,0.0,78,0.00,,,0.01,Wunderground v.1.15,2013-03-09 00:36:00,
2013-03-08 17:41:00,43.8,37.1,29.65,West,278,0.0,0.0,77,0.00,,,0.01,Wunderground v.1.15,2013-03-09 00:41:00,
2013-03-08 17:46:00,43.6,36.9,29.65,West,278,0.0,0.0,77,0.00,,,0.01,Wunderground v.1.15,2013-03-09 00:46:00,
2013-03-08 17:51:00,43.5,36.8,29.65,West,278,0.0,0.0,77,0.00,,,0.01,Wunderground v.1.15,2013-03-09 00:51:00,
2013-03-08 17:56:00,43.3,36.9,29.65,West,278,0.0,0.0,78,0.00,,,0.01,Wunderground v.1.15,2013-03-09 00:56:00,
2013-03-08 18:01:00,43.3,36.9,29.65,West,278,0.0,0.0,78,0.00,,,0.01,Wunderground v.1.15,2013-03-09 01:01:00,
2013-03-08 18:06:00,43.2,36.8,29.65,West,278,0.0,0.0,78,0.00,,,0.01,Wunderground v.1.15,2013-03-09 01:06:00,
2013-03-08 18:11:00,43.1,36.7,29.65,West,278,0.0,0.0,78,0.00,,,0.01,Wunderground v.1.15,2013-03-09 01:11:00,
2013-03-08 18:16:00,42.9,36.5,29.65,West,271,4.0,4.0,78,0.00,,,0.01,Wunderground v.1.15,2013-03-09 01:16:00,
2013-03-08 18:21:00,42.8,36.4,29.65,SW,229,0.0,2.0,78,0.00,,,0.01,Wunderground v.1.15,2013-03-09 01:21:00,
2013-03-08 18:26:00,42.8,36.4,29.66,SSW,206,0.0,3.0,78,0.00,,,0.01,Wunderground v.1.15,2013-03-09 01:26:00,
2013-03-08 18:31:00,42.6,36.5,29.66,SSW,205,2.0,2.0,79,0.00,,,0.01,Wunderground v.1.15,2013-03-09 01:31:00,
2013-03-08 18:36:00,42.5,36.4,29.66,SSW,202,0.0,3.0,79,0.00,,,0.01,Wunderground v.1.15,2013-03-09 01:36:00,
2013-03-08 18:41:00,42.3,36.6,29.65,SSW,201,0.0,2.0,80,0.00,,,0.01,Wunderground v.1.15,2013-03-09 01:41:00,
2013-03-08 18:46:00,41.6,35.2,29.65,SSW,201,0.0,2.0,78,0.00,,,0.01,Wunderground v.1.15,2013-03-09 01:46:00,
2013-03-08 18:51:00,40.6,34.6,29.65,SSW,201,0.0,0.0,79,0.00,,,0.01,Wunderground v.1.15,2013-03-09 01:51:00,
2013-03-08 18:56:00,40.5,35.4,29.66,SSW,201,1.0,3.0,82,0.00,,,0.01,Wunderground v.1.15,2013-03-09 01:56:00,
2013-03-08 19:01:00,40.6,35.8,29.66,SSW,201,2.0,2.0,83,0.00,,,0.01,Wunderground v.1.15,2013-03-09 02:01:00,
2013-03-08 19:06:00,41.1,36.3,29.66,SSW,198,3.0,4.0,83,0.00,,,0.01,Wunderground v.1.15,2013-03-09 02:06:00,
2013-03-08 19:11:00,41.6,36.5,29.66,South,187,0.0,2.0,82,0.00,,,0.01,Wunderground v.1.15,2013-03-09 02:11:00,
2013-03-08 19:16:00,41.9,36.5,29.66,South,187,0.0,2.0,81,0.00,,,0.01,Wunderground v.1.15,2013-03-09 02:16:00,
2013-03-08 19:21:00,41.9,36.5,29.66,South,187,0.0,0.0,81,0.00,,,0.01,Wunderground v.1.15,2013-03-09 02:21:00,
2013-03-08 19:26:00,41.9,36.5,29.63,South,187,1.0,3.0,81,0.00,,,0.01,Wunderground v.1.15,2013-03-09 02:26:00,
2013-03-08 19:31:00,41.9,36.2,29.63,South,187,1.0,1.0,80,0.00,,,0.01,Wunderground v.1.15,2013-03-09 02:31:00,
2013-03-08 19:36:00,42.1,36.4,29.63,South,187,0.0,3.0,80,0.00,,,0.01,Wunderground v.1.15,2013-03-09 02:36:00,
2013-03-08 19:41:00,42.2,36.5,29.63,East,96,1.0,2.0,80,0.00,,,0.01,Wunderground v.1.15,2013-03-09 02:41:00,
2013-03-08 19:46:00,42.3,36.6,29.63,East,96,1.0,2.0,80,0.00,,,0.01,Wunderground v.1.15,2013-03-09 02:46:00,
2013-03-08 19:51:00,42.2,36.5,29.63,East,96,0.0,2.0,80,0.00,,,0.01,Wunderground v.1.15,2013-03-09 02:51:00,
2013-03-08 19:56:00,42.1,36.7,29.63,East,96,0.0,2.0,81,0.00,,,0.01,Wunderground v.1.15,2013-03-09 02:56:00,
2013-03-08 20:01:00,42.1,36.7,29.63,East,97,0.0,1.0,81,0.00,,,0.01,Wunderground v.1.15,2013-03-09 03:01:00,
2013-03-08 20:06:00,42.1,36.7,29.63,East,97,0.0,1.0,81,0.00,,,0.01,Wunderground v.1.15,2013-03-09 03:06:00,
2013-03-08 20:11:00,42.2,36.8,29.63,East,97,4.0,4.0,81,0.00,,,0.01,Wunderground v.1.15,2013-03-09 03:11:00,
2013-03-08 20:16:00,42.2,36.8,29.63,East,97,0.0,4.0,81,0.00,,,0.01,Wunderground v.1.15,2013-03-09 03:16:00,
2013-03-08 20:21:00,42.3,36.9,29.57,East,97,0.0,1.0,81,0.00,,,0.01,Wunderground v.1.15,2013-03-09 03:21:00,
2013-03-08 20:26:00,42.2,36.8,29.57,East,97,0.0,1.0,81,0.00,,,0.01,Wunderground v.1.15,2013-03-09 03:26:00,
2013-03-08 20:31:00,42.2,36.8,29.57,East,98,3.0,4.0,81,0.00,,,0.01,Wunderground v.1.15,2013-03-09 03:31:00,
2013-03-08 20:36:00,42.3,36.9,29.57,East,98,1.0,4.0,81,0.00,,,0.01,Wunderground v.1.15,2013-03-09 03:36:00,
2013-03-08 20:41:00,42.3,36.9,29.57,ESE,123,1.0,6.0,81,0.00,,,0.01,Wunderground v.1.15,2013-03-09 03:41:00,
2013-03-08 20:46:00,42.3,36.9,29.57,ESE,123,0.0,6.0,81,0.00,,,0.01,Wunderground v.1.15,2013-03-09 03:46:00,
2013-03-08 20:51:00,42.1,36.4,29.57,ESE,123,0.0,0.0,80,0.00,,,0.01,Wunderground v.1.15,2013-03-09 03:51:00,
2013-03-08 20:56:00,41.8,36.4,29.57,ESE,123,0.0,0.0,81,0.00,,,0.01,Wunderground v.1.15,2013-03-09 03:56:00,
2013-03-08 21:01:00,41.6,36.5,29.57,ESE,123,0.0,0.0,82,0.00,,,0.01,Wunderground v.1.15,2013-03-09 04:01:00,
2013-03-08 21:06:00,41.5,36.4,29.56,ESE,123,0.0,0.0,82,0.00,,,0.01,Wunderground v.1.15,2013-03-09 04:06:00,
2013-03-08 21:11:00,41.2,35.8,29.56,ESE,123,0.0,0.0,81,0.00,,,0.01,Wunderground v.1.15,2013-03-09 04:11:00,
2013-03-08 21:17:00,40.3,34.9,29.56,ESE,123,0.0,0.0,81,0.00,,,0.01,Wunderground v.1.15,2013-03-09 04:17:00,
2013-03-08 21:21:00,40.1,35.0,29.57,ESE,123,0.0,0.0,82,0.00,,,0.01,Wunderground v.1.15,2013-03-09 04:21:00,
2013-03-08 21:27:00,39.3,34.3,29.57,ESE,123,0.0,0.0,82,0.00,,,0.01,Wunderground v.1.15,2013-03-09 04:27:00,
2013-03-08 21:32:00,39.2,34.5,29.57,ESE,123,0.0,0.0,83,0.00,,,0.01,Wunderground v.1.15,2013-03-09 04:32:00,
2013-03-08 21:37:00,38.5,33.8,29.57,ESE,123,0.0,0.0,83,0.00,,,0.01,Wunderground v.1.15,2013-03-09 04:37:00,
2013-03-08 21:42:00,37.9,33.2,29.57,ESE,123,0.0,0.0,83,0.00,,,0.01,Wunderground v.1.15,2013-03-09 04:42:00,
2013-03-08 21:47:00,37.5,33.1,29.57,ESE,123,0.0,0.0,84,0.00,,,0.01,Wunderground v.1.15,2013-03-09 04:47:00,
2013-03-08 21:52:00,36.9,32.2,29.57,ESE,123,0.0,0.0,83,0.00,,,0.01,Wunderground v.1.15,2013-03-09 04:52:00,
2013-03-08 21:57:00,36.6,32.2,29.57,ESE,123,0.0,0.0,84,0.00,,,0.01,Wunderground v.1.15,2013-03-09 04:57:00,
2013-03-08 22:00:00,36.5,32.1,29.57,ESE,123,0.0,0.0,84,0.00,,,0.01,Wunderground v.1.15,2013-03-09 05:00:00,
2013-03-08 22:05:00,36.5,32.4,29.57,ESE,123,0.0,0.0,85,0.00,,,0.01,Wunderground v.1.15,2013-03-09 05:05:00,
2013-03-08 22:10:00,36.2,32.1,29.58,ESE,123,0.0,0.0,85,0.00,,,0.01,Wunderground v.1.15,2013-03-09 05:10:00,
2013-03-08 22:15:00,36.3,32.2,29.58,ESE,123,0.0,0.0,85,0.00,,,0.01,Wunderground v.1.15,2013-03-09 05:15:00,
2013-03-08 22:20:00,34.9,30.6,29.58,ESE,123,0.0,0.0,84,0.00,,,0.01,Wunderground v.1.15,2013-03-09 05:20:00,
2013-03-08 22:25:00,34.3,30.5,29.60,ESE,123,0.0,0.0,86,0.00,,,0.01,Wunderground v.1.15,2013-03-09 05:25:00,
2013-03-08 22:30:00,34.6,30.6,29.60,ESE,123,0.0,0.0,85,0.00,,,0.01,Wunderground v.1.15,2013-03-09 05:30:00,
2013-03-08 22:35:00,33.2,29.2,29.60,ESE,123,0.0,0.0,85,0.00,,,0.01,Wunderground v.1.15,2013-03-09 05:35:00,
2013-03-08 22:40:00,33.1,29.4,29.61,ESE,123,0.0,0.0,86,0.00,,,0.01,Wunderground v.1.15,2013-03-09 05:40:00,
2013-03-08 22:45:00,32.7,29.0,29.61,ESE,123,0.0,0.0,86,0.00,,,0.01,Wunderground v.1.15,2013-03-09 05:45:00,
2013-03-08 22:50:00,33.1,29.7,29.61,ESE,123,0.0,0.0,87,0.00,,,0.01,Wunderground v.1.15,2013-03-09 05:50:00,
2013-03-08 22:55:00,32.8,29.1,29.61,ESE,123,0.0,0.0,86,0.00,,,0.01,Wunderground v.1.15,2013-03-09 05:55:00,
2013-03-08 23:00:00,31.8,27.8,29.61,ESE,123,0.0,0.0,85,0.00,,,0.01,Wunderground v.1.15,2013-03-09 06:00:00,
2013-03-08 23:05:00,31.3,27.9,29.61,ESE,123,0.0,0.0,87,0.00,,,0.01,Wunderground v.1.15,2013-03-09 06:05:00,
2013-03-08 23:10:00,31.6,28.5,29.62,ESE,123,0.0,0.0,88,0.00,,,0.01,Wunderground v.1.15,2013-03-09 06:10:00,
2013-03-08 23:15:00,31.5,28.1,29.62,ESE,123,0.0,0.0,87,0.00,,,0.01,Wunderground v.1.15,2013-03-09 06:15:00,
2013-03-08 23:20:00,30.4,27.0,29.62,ESE,123,0.0,0.0,87,0.00,,,0.01,Wunderground v.1.15,2013-03-09 06:20:00,
2013-03-08 23:25:00,30.9,28.0,29.61,ESE,123,1.0,2.0,89,0.00,,,0.01,Wunderground v.1.15,2013-03-09 06:25:00,
2013-03-08 23:30:00,32.1,29.2,29.61,ESE,123,1.0,1.0,89,0.00,,,0.01,Wunderground v.1.15,2013-03-09 06:30:00,
2013-03-08 23:35:00,31.2,28.1,29.61,ESE,123,0.0,4.0,88,0.00,,,0.01,Wunderground v.1.15,2013-03-09 06:35:00,
2013-03-08 23:40:00,30.9,28.0,29.59,ESE,123,0.0,0.0,89,0.00,,,0.01,Wunderground v.1.15,2013-03-09 06:40:00,
2013-03-08 23:45:00,30.3,27.2,29.59,ESE,123,0.0,0.0,88,0.00,,,0.01,Wunderground v.1.15,2013-03-09 06:45:00,
2013-03-08 23:50:00,29.5,26.4,29.59,ESE,123,0.0,0.0,88,0.00,,,0.01,Wunderground v.1.15,2013-03-09 06:50:00,
2013-03-08 23:56:00,30.0,27.2,29.60,ESE,123,0.0,0.0,89,0.00,,,0.01,Wunderground v.1.15,2013-03-09 06:56:00,